DW2770 Cefalu IT current weather conditions

sailwx.info

Wind from 206 at 6 knots gusting 6

Air temperature 28.9° C
Dewpoint 21.6° C

Last reported at 2015-Aug-04 16:50 UTC.
Time now 2015-Aug-04 17:56 UTC

Location: N 38°02' E 014°02'.
View on Google Maps.

See reports from other nearby stations

  
Tides and Currents Weather Stations Pressure Air Temp Water Temp Dewpoint Dewpoint Depression Visibility Wind Speed Wind Dir Waves Ship Positions
date/time (UTC)wind fromknots sea level pressurealtimeterstation pressurevisibilityair tempwater tempwave heightnotes
2015-Aug-04 16:50 206 6 gusting 6 28.9
2015-Aug-04 16:40 29.4
2015-Aug-04 16:30 315 1 gusting 6 28.9
2015-Aug-04 16:20 298 3 gusting 6 29.4
2015-Aug-04 16:10 315 0 gusting 4 29.4
2015-Aug-04 16:00 248 3 gusting 5 29.4
2015-Aug-04 15:50 256 4 gusting 5 29.4
2015-Aug-04 15:40 292 2 gusting 6 29.4
2015-Aug-04 15:30 160 1 gusting 6 29.4
2015-Aug-04 15:20 315 2 gusting 2 29.4
2015-Aug-04 15:10 315 1 gusting 2 29.4
2015-Aug-04 15:00 317 2 gusting 4 29.4
2015-Aug-04 14:50 292 2 gusting 2 29.4
2015-Aug-04 14:40 338 1 gusting 8 29.4
2015-Aug-04 14:30 270 4 gusting 5 29.4
2015-Aug-04 14:20 262 29.4
2015-Aug-04 14:10 315 1 gusting 5 29.4
2015-Aug-04 14:00 292 1 gusting 5 30.0
2015-Aug-04 13:50 286 1 gusting 4 29.4
2015-Aug-04 13:40 315 4 gusting 4 29.4
2015-Aug-04 13:30 248 2 gusting 6 29.4
2015-Aug-04 13:20 280 6 gusting 6 29.4
2015-Aug-04 13:10 270 4 gusting 4 29.4
2015-Aug-04 13:00 292 2 gusting 8 29.4
2015-Aug-04 12:50 280 2 gusting 5 30.0
2015-Aug-04 12:40 270 1 gusting 4 29.4
2015-Aug-04 12:30 338 3 gusting 4 29.4
2015-Aug-04 12:20 342 2 gusting 4 29.4
2015-Aug-04 12:10 315 2 gusting 4 29.4
2015-Aug-04 12:00 248 4 gusting 4 29.4
2015-Aug-04 11:50 288 1 gusting 2 30.0
2015-Aug-04 11:40 292 2 gusting 5 29.4
2015-Aug-04 11:30 292 5 gusting 6 29.4
2015-Aug-04 11:20 307 4 gusting 6 29.4
2015-Aug-04 11:10 270 4 gusting 6 28.9
2015-Aug-04 11:00 292 4 gusting 5 29.4
2015-Aug-04 10:50 265 1 gusting 6 30.0
2015-Aug-04 10:40 225 5 gusting 6 29.4
2015-Aug-04 10:30 315 2 gusting 6 29.4
2015-Aug-04 10:20 294 6 gusting 6 28.9
2015-Aug-04 10:10 315 2 gusting 6 29.4
2015-Aug-04 10:00 315 5 gusting 6 29.4
2015-Aug-04 09:50 258 2 gusting 6 29.4
2015-Aug-04 09:40 338 5 gusting 6 28.9
2015-Aug-04 09:30 270 4 gusting 6 28.9
2015-Aug-04 09:20 282 1 gusting 7 28.9
2015-Aug-04 09:10 291 6 gusting 7 28.9
2015-Aug-04 09:00 292 5 gusting 7 28.9
2015-Aug-04 08:50 272 3 gusting 5 28.9
2015-Aug-04 08:40 292 2 gusting 5 28.3
2015-Aug-04 08:30 270 4 gusting 6 28.3
2015-Aug-04 08:20 210 2 gusting 6 28.3
2015-Aug-04 08:10 270 2 gusting 6 28.3
2015-Aug-04 08:00 270 4 gusting 5 28.3
2015-Aug-04 07:50 225 5 gusting 6 28.3
2015-Aug-04 07:40 292 6 gusting 6 28.3
2015-Aug-04 07:30 270 2 gusting 2 28.3
2015-Aug-04 07:20 225 0 gusting 2 27.8
2015-Aug-04 07:10 255 2 gusting 2 28.3
2015-Aug-04 07:00 273 0 gusting 2 28.3
2015-Aug-04 06:50 304 0 gusting 4 27.8
2015-Aug-04 06:40 315 2 gusting 2 27.8
2015-Aug-04 06:30 248 2 gusting 4 27.8
2015-Aug-04 06:20 209 4 gusting 4 27.8
2015-Aug-04 06:10 202 2 gusting 6 27.8
2015-Aug-04 06:00 225 1 gusting 4 27.8
2015-Aug-04 05:50 229 0 gusting 4 27.2
2015-Aug-04 05:40 225 3 gusting 4 27.2
2015-Aug-04 05:30 248 2 gusting 4 27.2
2015-Aug-04 05:20 212 2 gusting 4 26.7
2015-Aug-04 05:10 202 0 gusting 2 26.7
2015-Aug-04 05:00 202 0 gusting 1 25.6
2015-Aug-04 04:50 193 1 gusting 5 25.6
2015-Aug-04 04:40 202 4 gusting 5 25.0
2015-Aug-04 04:30 202 2 gusting 6 25.0
2015-Aug-04 04:20 180 6 gusting 6 24.4
2015-Aug-04 04:10 180 1 gusting 2 24.4
2015-Aug-04 04:00 180 2 gusting 4 25.0
2015-Aug-04 03:50 202 3 gusting 6 25.0
2015-Aug-04 03:40 180 4 gusting 4 25.0
2015-Aug-04 03:30 202 1 gusting 4 25.0
2015-Aug-04 03:20 185 1 gusting 5 25.0
2015-Aug-04 03:10 159 4 gusting 5 25.0
2015-Aug-04 03:00 180 4 gusting 5 25.0
2015-Aug-04 02:50 180 25.6
2015-Aug-04 02:40 182 1 gusting 4 25.6
2015-Aug-04 02:30 202 3 gusting 4 25.6
2015-Aug-04 02:20 180 2 gusting 4 25.6
2015-Aug-04 02:10 201 0 gusting 2 25.6
2015-Aug-04 02:00 202 0 gusting 2 25.6
2015-Aug-04 01:50 182 1 gusting 4 25.6
2015-Aug-04 01:40 202 1 gusting 4 25.6
2015-Aug-04 01:30 202 2 gusting 2 25.6
2015-Aug-04 01:20 180 0 gusting 2 25.6
2015-Aug-04 01:10 180 0 gusting 4 25.6
2015-Aug-04 01:00 180 4 gusting 5 25.6
2015-Aug-04 00:50 176 25.6
2015-Aug-04 00:40 192 1 gusting 2 26.1
2015-Aug-04 00:30 202 2 gusting 2 26.1
2015-Aug-04 00:20 161 1 gusting 2 26.1
2015-Aug-04 00:10 202 2 gusting 2 26.1
2015-Aug-04 00:00 180 26.1
2015-Aug-03 23:50 181 1 gusting 1 26.7
2015-Aug-03 23:40 202 26.7
2015-Aug-03 23:30 202 26.7
2015-Aug-03 23:20 179 26.7
2015-Aug-03 23:10 163 26.7
2015-Aug-03 23:00 112 26.7
2015-Aug-03 22:50 159 26.7
2015-Aug-03 22:40 184 26.7
2015-Aug-03 22:30 180 0 gusting 1 26.7
2015-Aug-03 22:20 201 1 gusting 2 26.7
2015-Aug-03 22:10 202 2 gusting 2 27.2
2015-Aug-03 22:00 202 1 gusting 2 27.2
2015-Aug-03 21:50 202 27.2
2015-Aug-03 21:40 189 3 gusting 4 27.2
2015-Aug-03 21:30 202 0 gusting 2 27.2
2015-Aug-03 21:20 202 1 gusting 1 27.2
2015-Aug-03 21:10 180 1 gusting 1 27.2
2015-Aug-03 21:00 090 27.8
2015-Aug-03 20:50 068 27.8
2015-Aug-03 20:40 037 27.8
2015-Aug-03 20:30 068 27.8
2015-Aug-03 20:20 068 0 gusting 2 27.8
2015-Aug-03 20:10 082 2 gusting 2 27.8
2015-Aug-03 20:00 180 27.8
2015-Aug-03 19:50 225 27.8
2015-Aug-03 19:40 068 27.8
2015-Aug-03 19:30 068 27.8
2015-Aug-03 19:20 022 0 gusting 4 27.8
2015-Aug-03 19:10 057 4 gusting 4 27.8
2015-Aug-03 19:00 022 1 gusting 2 27.8
2015-Aug-03 18:50 045 2 gusting 5 27.8
2015-Aug-03 18:40 056 5 gusting 5 27.8
2015-Aug-03 18:30 068 4 gusting 5 27.8
2015-Aug-03 18:20 068 3 gusting 5 28.3
2015-Aug-03 18:10 078 1 gusting 4 28.3
2015-Aug-03 18:00 225 1 gusting 4 28.3
2015-Aug-03 17:50 202 3 gusting 5 28.3
2015-Aug-03 17:40 102 1 gusting 6 28.3
2015-Aug-03 17:30 068 2 gusting 4 28.9
2015-Aug-03 17:20 025 1 gusting 2 28.3
2015-Aug-03 17:10 249 1 gusting 4 28.3
2015-Aug-03 17:00 135 1 gusting 2 28.3
2015-Aug-03 16:50 315 2 gusting 2 28.3
2015-Aug-03 16:40 315 1 gusting 6 28.9
2015-Aug-03 16:30 315 0 gusting 2 29.4
2015-Aug-03 16:20 225 2 gusting 2 29.4
2015-Aug-03 16:10 261 2 gusting 4 29.4
2015-Aug-03 16:00 292 2 gusting 2 29.4
2015-Aug-03 15:50 29.4
2015-Aug-03 15:40 292 1 gusting 5 29.4
2015-Aug-03 15:30 248 2 gusting 4 29.4
2015-Aug-03 15:20 292 2 gusting 6 29.4
2015-Aug-03 15:10 268 1 gusting 8 29.4
2015-Aug-03 15:00 225 4 gusting 8 29.4
2015-Aug-03 14:50 315 2 gusting 4 29.4
2015-Aug-03 14:40 240 2 gusting 5 28.9
2015-Aug-03 14:30 292 0 gusting 5 29.4
2015-Aug-03 14:20 292 0 gusting 5 29.4
2015-Aug-03 14:10 055 0 gusting 2 29.4
2015-Aug-03 14:00 292 1 gusting 6 29.4
2015-Aug-03 13:50 022 4 gusting 6 29.4
2015-Aug-03 13:40 042 2 gusting 2 29.4
2015-Aug-03 13:30 069 1 gusting 1 30.0
2015-Aug-03 13:20 112 1 gusting 4 29.4
2015-Aug-03 13:10 358 1 gusting 6 29.4
2015-Aug-03 13:00 068 5 gusting 6 29.4
2015-Aug-03 12:50 045 1 gusting 1 29.4
2015-Aug-03 12:40 292 29.4
2015-Aug-03 12:30 202 0 gusting 1 29.4
2015-Aug-03 12:20 28.9
2015-Aug-03 12:10 022 1 gusting 2 28.9
2015-Aug-03 12:00 202 0 gusting 2 28.9
2015-Aug-03 11:50 090 2 gusting 2 28.9
2015-Aug-03 11:40 348 0 gusting 1 28.9
2015-Aug-03 11:30 292 2 gusting 2 28.9
2015-Aug-03 11:20 045 1 gusting 2 28.9
2015-Aug-03 11:10 045 1 gusting 2 29.4
2015-Aug-03 11:00 068 0 gusting 4 28.9
2015-Aug-03 10:50 045 2 gusting 2 28.9
2015-Aug-03 10:40 156 28.9
2015-Aug-03 10:30 076 3 gusting 4 28.9
2015-Aug-03 10:20 180 2 gusting 5 28.9
2015-Aug-03 10:10 085 5 gusting 5 28.9
2015-Aug-03 10:00 070 5 gusting 5 28.9
2015-Aug-03 09:50 068 2 gusting 5 28.9
2015-Aug-03 09:40 063 4 gusting 4 28.9
2015-Aug-03 09:30 024 1 gusting 6 28.9
2015-Aug-03 09:20 045 3 gusting 6 29.4
2015-Aug-03 09:10 045 2 gusting 5 28.9
2015-Aug-03 09:00 074 5 gusting 6 29.4
2015-Aug-03 08:50 045 2 gusting 4 29.4
2015-Aug-03 08:40 062 1 gusting 4 29.4
2015-Aug-03 08:30 065 1 gusting 4 29.4
2015-Aug-03 08:20 064 3 gusting 4 29.4
2015-Aug-03 08:10 324 0 gusting 4 29.4
2015-Aug-03 08:00 068 2 gusting 4 29.4
2015-Aug-03 07:50 068 2 gusting 2 29.4
2015-Aug-03 07:40 072 1 gusting 2 29.4
2015-Aug-03 07:30 042 0 gusting 5 29.4
2015-Aug-03 07:20 112 29.4
2015-Aug-03 07:10 049 2 gusting 4 29.4
2015-Aug-03 07:00 336 29.4
2015-Aug-03 06:50 338 0 gusting 0 28.9
2015-Aug-03 06:40 296 0 gusting 1 28.9
2015-Aug-03 06:30 354 0 gusting 1 28.9
2015-Aug-03 06:20 315 1 gusting 2 28.9
2015-Aug-03 06:10 331 28.9
2015-Aug-03 06:00 210 1 gusting 4 28.3
2015-Aug-03 05:50 248 1 gusting 1 28.3
2015-Aug-03 05:40 312 0 gusting 1 28.3
2015-Aug-03 05:30 233 28.3
2015-Aug-03 05:20 248 28.3
2015-Aug-03 05:10 248 27.8
2015-Aug-03 05:00 248 27.2
2015-Aug-03 04:50 248 0 gusting 2 27.2
2015-Aug-03 04:40 245 0 gusting 2 27.2
2015-Aug-03 04:30 218 2 gusting 4 27.2
2015-Aug-03 04:20 225 2 gusting 5 27.2
2015-Aug-03 04:10 248 3 gusting 4 27.2
2015-Aug-03 04:00 235 2 gusting 4 27.2
2015-Aug-03 03:50 202 3 gusting 4 27.8
2015-Aug-03 03:40 180 2 gusting 6 27.2
2015-Aug-03 03:30 180 2 gusting 4 27.2
2015-Aug-03 03:20 202 26.7
2015-Aug-03 03:10 136 0 gusting 1 27.2
2015-Aug-03 03:00 180 27.8
2015-Aug-03 02:50 158 1 gusting 2 27.2
2015-Aug-03 02:40 135 0 gusting 6 27.2
2015-Aug-03 02:30 189 6 gusting 6 27.2
2015-Aug-03 02:20 180 0 gusting 4 27.2
2015-Aug-03 02:10 202 27.2
2015-Aug-03 02:00 180 27.2
2015-Aug-03 01:50 180 1 gusting 2 27.2
2015-Aug-03 01:40 200 27.2
2015-Aug-03 01:30 166 27.2
2015-Aug-03 01:20 180 0 gusting 0 27.8
2015-Aug-03 01:10 068 27.2
2015-Aug-03 01:00 068 27.2
2015-Aug-03 00:50 068 27.2
2015-Aug-03 00:40 180 27.2
2015-Aug-03 00:30 068 27.2
2015-Aug-03 00:20 135 1 gusting 4 27.8
2015-Aug-03 00:10 225 28.3
2015-Aug-03 00:00 225 28.3
2015-Aug-02 23:50 225 0 gusting 4 28.3
2015-Aug-02 23:40 225 2 gusting 2 27.8
2015-Aug-02 23:30 202 1 gusting 1 27.2
2015-Aug-02 23:20 202 0 gusting 1 26.7
2015-Aug-02 23:10 158 27.2
2015-Aug-02 23:00 225 27.2
2015-Aug-02 22:50 163 27.2
2015-Aug-02 22:40 202 27.8
2015-Aug-02 22:30 190 1 gusting 1 27.8
2015-Aug-02 22:20 202 0 gusting 1 27.8
2015-Aug-02 22:10 158 27.8
2015-Aug-02 22:00 202 1 gusting 1 27.8
2015-Aug-02 21:50 202 0 gusting 1 27.8
2015-Aug-02 21:40 180 27.8
2015-Aug-02 21:30 180 27.8
2015-Aug-02 21:20 180 27.8
2015-Aug-02 21:10 180 27.8
2015-Aug-02 21:00 202 28.3
2015-Aug-02 20:50 184 0 gusting 1 27.8
2015-Aug-02 20:40 202 0 gusting 0 27.8
2015-Aug-02 20:30 068 28.3
2015-Aug-02 20:20 068 27.8
2015-Aug-02 20:10 068 27.8
2015-Aug-02 20:00 090 27.8
2015-Aug-02 19:50 068 27.8
2015-Aug-02 19:40 068 2 gusting 2 27.8
2015-Aug-02 19:30 068 27.8
2015-Aug-02 19:20 090 28.3
2015-Aug-02 19:10 090 28.3
2015-Aug-02 19:00 053 28.3
2015-Aug-02 18:50 045 0 gusting 0 28.3
2015-Aug-02 18:40 068 28.3
2015-Aug-02 18:30 068 28.3
2015-Aug-02 18:20 068 28.9
2015-Aug-02 18:10 068 28.9
2015-Aug-02 18:00 068 1 gusting 1 28.9
2015-Aug-02 17:50 089 28.9
2015-Aug-02 17:40 068 29.4
2015-Aug-02 17:30 068 2 gusting 4 29.4
2015-Aug-02 17:20 068 29.4
2015-Aug-02 17:10 068 2 gusting 6 29.4
2015-Aug-02 17:00 076 0 gusting 4 30.0